Weather History for Nantucket, MA

Change the Weather History Date:

Wednesday, April 24, 2013

  Actual Average Record
Temperature  
Mean Temperature 48 °F -  
Max Temperature 53 °F 53 °F 69 °F (2008)
Min Temperature 44 °F 40 °F 31 °F (1971)
Degree Days  
Heating Degree Days 17    
Moisture  
Dew Point 44 °F    
Average Humidity 87    
Maximum Humidity 94    
Minimum Humidity 74    
Precipitation  
Precipitation 0.22 in - - ()
Sea Level Pressure  
Sea Level Pressure 29.89 in    
Wind  
Wind Speed 24 mph (WNW)    
Max Wind Speed 32 mph    
Max Gust Speed 43 mph    
Visibility 7 miles    
Events Rain    
Averages and records for this station are not official NWS values.
T = Trace of Precipitation, MM = Missing Value Source: NWS Daily Summary

Daily Weather History Graph

Daily Weather History Graph

Search for Another Location

Airport:

Trip Planner

Search our weather history database for the weather conditions in past years. The results will help you decide how hot, cold, wet, or windy it might be!

Date:

Astronomy

Apr. 24, 2013 Rise Set
Actual Time 5:47 AM EDT 7:30 PM EDT
Civil Twilight 5:17 AM EDT 7:59 PM EDT
Nautical Twilight 4:42 AM EDT 8:35 PM EDT
Astronomical Twilight 4:04 AM EDT 9:13 PM EDT
Moon 6:29 PM EDT (4/24) 4:49 AM EDT (4/24)
Length of Visible Light 14h 42m
Length of Day
13h 43m
Waxing Gibbous, 98% of the Moon is Illuminated
Apr 24
Waxing Gibbous
Apr 25
Full
May 2
Last Quarter
May 9
New
May 18
First Quarter

Hourly Weather History & Observations

Time (EDT) Temp. Windchill Dew Point Humidity Pressure Visibility Wind Dir Wind Speed Gust Speed Precip Events Conditions
12:53 AM 46.0 °F 37.0 °F 44.1 °F 93% 29.88 in 5.0 mi North 27.6 mph 34.5 mph 0.15 in Rain Light Rain
1:53 AM 46.0 °F 37.6 °F 44.1 °F 93% 29.81 in 7.0 mi North 24.2 mph 34.5 mph 0.04 in Rain Light Rain
2:38 AM 46.4 °F 38.3 °F 44.6 °F 93% 29.79 in 3.0 mi North 23.0 mph 33.4 mph 0.02 in Rain Light Rain
2:53 AM 46.0 °F 38.0 °F 44.1 °F 93% 29.78 in 4.0 mi North 21.9 mph 36.8 mph 0.02 in   Overcast
3:19 AM 44.6 °F 34.9 °F 42.8 °F 93% 29.77 in 3.0 mi NNW 28.8 mph 34.5 mph 0.00 in Rain Light Rain
3:29 AM 44.6 °F 35.1 °F 42.8 °F 93% 29.76 in 2.5 mi NNW 27.6 mph 35.7 mph 0.00 in Rain Light Rain
3:53 AM 45.0 °F 35.1 °F 43.0 °F 93% 29.76 in 2.5 mi NNW 31.1 mph 41.4 mph 0.00 in Rain Light Rain
4:00 AM 44.6 °F 34.9 °F 42.8 °F 93% 29.77 in 3.0 mi NNW 28.8 mph 41.4 mph 0.00 in Rain Light Rain
4:53 AM 45.0 °F 35.8 °F 43.0 °F 93% 29.78 in 3.0 mi NNW 26.5 mph 36.8 mph 0.00 in Rain Light Rain
5:42 AM - - - N/A% 29.78 in 2.5 mi NW 32.2 mph 42.6 mph 0.00 in Rain Light Rain
6:06 AM 44.6 °F 34.4 °F 42.8 °F 93% 29.80 in 3.0 mi NNW 32.2 mph 40.3 mph 0.00 in Rain Light Rain
6:53 AM 44.6 °F 35.1 °F 43.0 °F 94% 29.82 in 4.0 mi NW 27.6 mph 40.3 mph 0.00 in   Overcast
7:53 AM 46.0 °F 37.0 °F 43.0 °F 89% 29.88 in 5.0 mi NW 27.6 mph 39.1 mph N/A   Overcast
8:53 AM 46.9 °F - 43.0 °F 86% 29.89 in 10.0 mi NW 23.0 mph 34.5 mph N/A   Overcast
9:06 AM 46.4 °F 37.9 °F 42.8 °F 87% 29.90 in 10.0 mi NW 25.3 mph 32.2 mph 0.00 in Rain Light Rain
9:53 AM 46.9 °F - 44.1 °F 90% 29.93 in 10.0 mi WNW 15.0 mph 26.5 mph 0.01 in   Overcast
10:53 AM 48.0 °F - 44.1 °F 86% 29.93 in 10.0 mi WNW 18.4 mph 25.3 mph N/A   Overcast
11:53 AM 50.0 °F - 44.1 °F 80% 29.94 in 10.0 mi NW 17.3 mph 21.9 mph N/A   Overcast
12:53 PM 50.0 °F - 44.1 °F 80% 29.96 in 10.0 mi WSW 15.0 mph - N/A   Overcast
1:27 PM 51.8 °F - 44.6 °F 76% 29.95 in 10.0 mi WSW 23.0 mph 26.5 mph N/A   Overcast
1:53 PM 52.0 °F - 44.1 °F 74% 29.95 in 10.0 mi WSW 18.4 mph - N/A   Mostly Cloudy
2:11 PM 51.8 °F - 44.6 °F 76% 29.95 in 10.0 mi SW 17.3 mph - N/A   Clear
2:53 PM 50.0 °F - 43.0 °F 77% 29.94 in 10.0 mi SW 19.6 mph - N/A   Clear
3:53 PM 50.0 °F - 43.0 °F 77% 29.94 in 10.0 mi SW 18.4 mph - N/A   Clear
4:53 PM 51.1 °F - 43.0 °F 74% 29.96 in 10.0 mi SW 18.4 mph 24.2 mph N/A   Clear
5:53 PM 50.0 °F - 43.0 °F 77% 29.96 in 10.0 mi SSW 16.1 mph - N/A   Clear
6:53 PM 48.0 °F - 44.1 °F 86% 29.96 in 9.0 mi SSW 13.8 mph - N/A   Clear
7:53 PM 48.9 °F - 45.0 °F 86% 29.97 in 9.0 mi SW 17.3 mph - N/A   Clear
8:53 PM 48.9 °F - 46.0 °F 90% 29.98 in 7.0 mi SSW 13.8 mph - N/A   Clear
9:53 PM 50.0 °F - 46.9 °F 89% 29.98 in 7.0 mi South 13.8 mph - N/A   Clear
10:53 PM 50.0 °F - 46.9 °F 89% 30.00 in 6.0 mi South 13.8 mph - N/A   Clear
11:28 PM 50.0 °F - 48.2 °F 94% 29.99 in 6.0 mi South 15.0 mph 23.0 mph N/A   Partly Cloudy
11:53 PM 50.0 °F - 46.9 °F 89% 30.00 in 5.0 mi South 16.1 mph - N/A   Clear